Time,TemperatureF,DewpointF,PressureIn,WindDirection,WindDirectionDegrees,WindSpeedMPH,WindSpeedGustMPH,Humidity,HourlyPrecipIn,Conditions,Clouds,dailyrainin,SoftwareType,DateUTC
2013-06-14 00:02:00,47.0,35.0,29.87,SSW,210,0.0,-999.0,64,-99.99,,,-99.99,,2013-06-14 06:02:00,
2013-06-14 00:12:00,47.0,35.0,29.87,SSW,210,0.0,-999.0,64,-99.99,,,-99.99,,2013-06-14 06:12:00,
2013-06-14 00:22:00,47.0,35.0,29.87,SSW,210,0.0,-999.0,64,-99.99,,,-99.99,,2013-06-14 06:22:00,
2013-06-14 00:33:00,49.0,34.0,29.86,ENE,74,0.0,-999.0,55,-99.99,,,-99.99,,2013-06-14 06:33:00,
2013-06-14 00:43:00,48.0,32.0,29.84,ENE,74,0.0,-999.0,54,-99.99,,,-99.99,,2013-06-14 06:43:00,
2013-06-14 00:52:00,48.0,32.0,29.84,ENE,74,0.0,-999.0,54,-99.99,,,-99.99,,2013-06-14 06:52:00,
2013-06-14 01:02:00,49.0,33.0,29.84,ENE,75,0.0,-999.0,53,-99.99,,,-99.99,,2013-06-14 07:02:00,
2013-06-14 01:12:00,48.0,33.0,29.84,ENE,75,0.0,-999.0,55,-99.99,,,-99.99,,2013-06-14 07:12:00,
2013-06-14 01:22:00,48.0,33.0,29.84,ENE,75,0.0,-999.0,55,-99.99,,,-99.99,,2013-06-14 07:22:00,
2013-06-14 01:33:00,47.0,32.0,29.83,ENE,76,0.0,-999.0,55,-99.99,,,-99.99,,2013-06-14 07:33:00,
2013-06-14 01:43:00,46.0,32.0,29.83,ENE,76,0.0,-999.0,58,-99.99,,,-99.99,,2013-06-14 07:43:00,
2013-06-14 01:53:00,46.0,32.0,29.83,ENE,76,0.0,-999.0,58,-99.99,,,-99.99,,2013-06-14 07:53:00,
2013-06-14 02:02:00,45.0,32.0,29.83,ENE,76,0.0,-999.0,60,-99.99,,,-99.99,,2013-06-14 08:02:00,
2013-06-14 02:12:00,44.0,31.0,29.82,ENE,76,0.0,-999.0,61,-99.99,,,-99.99,,2013-06-14 08:12:00,
2013-06-14 02:22:00,44.0,31.0,29.82,ENE,76,0.0,-999.0,61,-99.99,,,-99.99,,2013-06-14 08:22:00,
2013-06-14 02:33:00,43.0,31.0,29.82,ENE,75,0.0,-999.0,62,-99.99,,,-99.99,,2013-06-14 08:33:00,
2013-06-14 02:43:00,42.0,31.0,29.82,ENE,76,0.0,-999.0,64,-99.99,,,-99.99,,2013-06-14 08:43:00,
2013-06-14 02:53:00,42.0,31.0,29.82,ENE,76,0.0,-999.0,64,-99.99,,,-99.99,,2013-06-14 08:53:00,
2013-06-14 03:02:00,41.0,30.0,29.81,ENE,76,0.0,-999.0,65,-99.99,,,-99.99,,2013-06-14 09:02:00,
2013-06-14 03:12:00,40.0,30.0,29.80,ENE,75,0.0,-999.0,66,-99.99,,,-99.99,,2013-06-14 09:12:00,
2013-06-14 03:22:00,40.0,30.0,29.80,ENE,75,0.0,-999.0,66,-99.99,,,-99.99,,2013-06-14 09:22:00,
2013-06-14 04:01:00,40.0,29.0,29.80,ENE,76,0.0,-999.0,65,-99.99,,,-99.99,,2013-06-14 10:01:00,
2013-06-14 04:11:00,41.0,30.0,29.81,ENE,76,0.0,-999.0,65,-99.99,,,-99.99,,2013-06-14 10:11:00,
2013-06-14 04:22:00,41.0,30.0,29.81,ENE,76,0.0,-999.0,65,-99.99,,,-99.99,,2013-06-14 10:22:00,
2013-06-14 04:34:00,40.0,29.0,29.81,ENE,76,0.0,-999.0,65,-99.99,,,-99.99,,2013-06-14 10:34:00,
2013-06-14 04:43:00,40.0,30.0,29.82,ENE,76,0.0,-999.0,66,-99.99,,,-99.99,,2013-06-14 10:43:00,
2013-06-14 04:52:00,40.0,30.0,29.82,ENE,76,0.0,-999.0,66,-99.99,,,-99.99,,2013-06-14 10:52:00,
2013-06-14 05:02:00,39.0,29.0,29.82,ENE,76,0.0,-999.0,66,-99.99,,,-99.99,,2013-06-14 11:02:00,
2013-06-14 05:11:00,38.0,28.0,29.83,ENE,76,0.0,-999.0,68,-99.99,,,-99.99,,2013-06-14 11:11:00,
2013-06-14 05:22:00,38.0,28.0,29.83,ENE,76,0.0,-999.0,68,-99.99,,,-99.99,,2013-06-14 11:22:00,
2013-06-14 05:43:00,37.0,28.0,29.82,ENE,76,0.0,-999.0,71,-99.99,,,-99.99,,2013-06-14 11:43:00,
2013-06-14 05:52:00,37.0,28.0,29.82,ENE,76,0.0,-999.0,71,-99.99,,,-99.99,,2013-06-14 11:52:00,
2013-06-14 07:11:00,37.0,30.0,29.83,ENE,76,0.0,-999.0,77,-99.99,,,-99.99,,2013-06-14 13:11:00,
2013-06-14 07:22:00,37.0,30.0,29.83,ENE,76,0.0,-999.0,77,-99.99,,,-99.99,,2013-06-14 13:22:00,
2013-06-14 08:02:00,45.0,35.0,29.83,ENE,76,0.0,-999.0,68,-99.99,,,-99.99,,2013-06-14 14:02:00,
2013-06-14 08:11:00,48.0,35.0,29.83,ENE,76,0.0,-999.0,60,-99.99,,,-99.99,,2013-06-14 14:11:00,
2013-06-14 08:22:00,48.0,35.0,29.83,ENE,76,0.0,-999.0,60,-99.99,,,-99.99,,2013-06-14 14:22:00,
2013-06-14 08:34:00,51.0,34.0,29.83,ENE,77,0.0,-999.0,52,-99.99,,,-99.99,,2013-06-14 14:34:00,
2013-06-14 08:43:00,54.0,32.0,29.83,NE,55,0.0,-999.0,43,-99.99,,,-99.99,,2013-06-14 14:43:00,
2013-06-14 08:52:00,54.0,32.0,29.83,NE,55,0.0,-999.0,43,-99.99,,,-99.99,,2013-06-14 14:52:00,
2013-06-14 09:01:00,56.0,29.0,29.83,NE,35,1.0,-999.0,36,-99.99,,,-99.99,,2013-06-14 15:01:00,
2013-06-14 09:11:00,58.0,31.0,29.83,ESE,113,2.0,-999.0,35,-99.99,,,-99.99,,2013-06-14 15:11:00,
2013-06-14 09:23:00,58.0,31.0,29.83,ESE,113,2.0,-999.0,35,-99.99,,,-99.99,,2013-06-14 15:23:00,
2013-06-14 09:33:00,59.0,31.0,29.82,East,92,1.0,-999.0,34,-99.99,,,-99.99,,2013-06-14 15:33:00,
2013-06-14 09:43:00,60.0,30.0,29.82,SE,134,2.0,-999.0,32,-99.99,,,-99.99,,2013-06-14 15:43:00,
2013-06-14 09:52:00,60.0,30.0,29.82,SE,134,2.0,-999.0,32,-99.99,,,-99.99,,2013-06-14 15:52:00,
2013-06-14 10:01:00,61.0,29.0,29.81,East,82,1.0,-999.0,30,-99.99,,,-99.99,,2013-06-14 16:01:00,
2013-06-14 10:11:00,62.0,29.0,29.80,ENE,62,2.0,-999.0,29,-99.99,,,-99.99,,2013-06-14 16:11:00,
2013-06-14 10:22:00,62.0,29.0,29.80,ENE,62,2.0,-999.0,29,-99.99,,,-99.99,,2013-06-14 16:22:00,
2013-06-14 10:32:00,62.0,28.0,29.80,ESE,111,3.0,-999.0,27,-99.99,,,-99.99,,2013-06-14 16:32:00,
2013-06-14 10:43:00,63.0,28.0,29.80,ESE,114,2.0,-999.0,26,-99.99,,,-99.99,,2013-06-14 16:43:00,
2013-06-14 10:52:00,63.0,28.0,29.80,ESE,114,2.0,-999.0,26,-99.99,,,-99.99,,2013-06-14 16:52:00,
2013-06-14 11:02:00,63.0,28.0,29.80,East,100,2.0,-999.0,26,-99.99,,,-99.99,,2013-06-14 17:02:00,
2013-06-14 11:11:00,65.0,28.0,29.80,SSE,168,2.0,-999.0,25,-99.99,,,-99.99,,2013-06-14 17:11:00,
2013-06-14 11:22:00,65.0,28.0,29.80,SSE,168,2.0,-999.0,25,-99.99,,,-99.99,,2013-06-14 17:22:00,
2013-06-14 11:34:00,65.0,27.0,29.80,ESE,108,2.0,-999.0,24,-99.99,,,-99.99,,2013-06-14 17:34:00,
2013-06-14 11:43:00,65.0,28.0,29.80,East,80,2.0,-999.0,25,-99.99,,,-99.99,,2013-06-14 17:43:00,
2013-06-14 11:53:00,65.0,28.0,29.80,East,80,2.0,-999.0,25,-99.99,,,-99.99,,2013-06-14 17:53:00,
2013-06-14 12:02:00,67.0,28.0,29.81,NE,38,2.0,-999.0,23,-99.99,,,-99.99,,2013-06-14 18:02:00,
2013-06-14 12:11:00,67.0,27.0,29.81,ESE,119,2.0,-999.0,22,-99.99,,,-99.99,,2013-06-14 18:11:00,
2013-06-14 12:22:00,67.0,27.0,29.81,ESE,119,2.0,-999.0,22,-99.99,,,-99.99,,2013-06-14 18:22:00,
2013-06-14 12:32:00,67.0,25.0,29.81,NNE,22,4.0,-999.0,20,-99.99,,,-99.99,,2013-06-14 18:32:00,
2013-06-14 12:42:00,68.0,27.0,29.81,SW,219,2.0,-999.0,21,-99.99,,,-99.99,,2013-06-14 18:42:00,
2013-06-14 12:52:00,68.0,27.0,29.81,SW,219,2.0,-999.0,21,-99.99,,,-99.99,,2013-06-14 18:52:00,
2013-06-14 13:01:00,67.0,25.0,29.81,East,82,4.0,-999.0,20,-99.99,,,-99.99,,2013-06-14 19:01:00,
2013-06-14 13:11:00,66.0,25.0,29.81,South,190,2.0,-999.0,21,-99.99,,,-99.99,,2013-06-14 19:11:00,
2013-06-14 13:21:00,66.0,25.0,29.81,South,190,2.0,-999.0,21,-99.99,,,-99.99,,2013-06-14 19:21:00,
2013-06-14 13:32:00,66.0,25.0,29.81,SSW,192,2.0,-999.0,21,-99.99,,,-99.99,,2013-06-14 19:32:00,
2013-06-14 13:43:00,65.0,25.0,29.80,NE,49,2.0,-999.0,22,-99.99,,,-99.99,,2013-06-14 19:43:00,
2013-06-14 13:53:00,65.0,25.0,29.80,NE,49,2.0,-999.0,22,-99.99,,,-99.99,,2013-06-14 19:53:00,
2013-06-14 14:01:00,66.0,25.0,29.80,ESE,108,2.0,-999.0,21,-99.99,,,-99.99,,2013-06-14 20:01:00,
2013-06-14 14:11:00,65.0,25.0,29.80,NE,55,1.0,-999.0,22,-99.99,,,-99.99,,2013-06-14 20:11:00,
2013-06-14 14:22:00,65.0,25.0,29.80,NE,55,1.0,-999.0,22,-99.99,,,-99.99,,2013-06-14 20:22:00,
2013-06-14 14:33:00,65.0,26.0,29.79,SSE,160,2.0,-999.0,23,-99.99,,,-99.99,,2013-06-14 20:33:00,
2013-06-14 14:43:00,67.0,26.0,29.79,South,177,2.0,-999.0,21,-99.99,,,-99.99,,2013-06-14 20:43:00,
2013-06-14 14:53:00,67.0,26.0,29.79,South,177,2.0,-999.0,21,-99.99,,,-99.99,,2013-06-14 20:53:00,
2013-06-14 15:02:00,69.0,26.0,29.79,North,5,3.0,-999.0,20,-99.99,,,-99.99,,2013-06-14 21:02:00,
2013-06-14 15:11:00,69.0,26.0,29.78,NE,34,2.0,-999.0,20,-99.99,,,-99.99,,2013-06-14 21:11:00,
2013-06-14 15:22:00,69.0,26.0,29.78,NE,34,2.0,-999.0,20,-99.99,,,-99.99,,2013-06-14 21:22:00,
2013-06-14 15:34:00,69.0,24.0,29.79,SE,130,2.0,-999.0,18,-99.99,,,-99.99,,2013-06-14 21:34:00,
2013-06-14 15:42:00,70.0,23.0,29.78,ESE,103,3.0,-999.0,17,-99.99,,,-99.99,,2013-06-14 21:42:00,
2013-06-14 15:52:00,70.0,23.0,29.78,ESE,103,3.0,-999.0,17,-99.99,,,-99.99,,2013-06-14 21:52:00,
2013-06-14 16:01:00,69.0,22.0,29.78,North,351,2.0,-999.0,17,-99.99,,,-99.99,,2013-06-14 22:01:00,
2013-06-14 16:11:00,69.0,22.0,29.77,NNW,336,1.0,-999.0,17,-99.99,,,-99.99,,2013-06-14 22:11:00,
2013-06-14 16:22:00,69.0,22.0,29.77,NNW,336,1.0,-999.0,17,-99.99,,,-99.99,,2013-06-14 22:22:00,
2013-06-14 16:33:00,70.0,23.0,29.78,East,84,1.0,-999.0,17,-99.99,,,-99.99,,2013-06-14 22:33:00,
2013-06-14 16:43:00,69.0,22.0,29.76,SSW,207,1.0,-999.0,17,-99.99,,,-99.99,,2013-06-14 22:43:00,
2013-06-14 16:52:00,69.0,22.0,29.76,SSW,207,1.0,-999.0,17,-99.99,,,-99.99,,2013-06-14 22:52:00,
2013-06-14 17:01:00,69.0,22.0,29.77,West,272,2.0,-999.0,17,-99.99,,,-99.99,,2013-06-14 23:01:00,
2013-06-14 17:11:00,69.0,22.0,29.77,ESE,116,2.0,-999.0,17,-99.99,,,-99.99,,2013-06-14 23:11:00,
2013-06-14 17:22:00,69.0,22.0,29.77,ESE,116,2.0,-999.0,17,-99.99,,,-99.99,,2013-06-14 23:22:00,
2013-06-14 17:33:00,69.0,21.0,29.76,SSW,198,2.0,-999.0,16,-99.99,,,-99.99,,2013-06-14 23:33:00,
2013-06-14 17:43:00,68.0,20.0,29.76,ENE,76,1.0,-999.0,16,-99.99,,,-99.99,,2013-06-14 23:43:00,
2013-06-14 17:52:00,68.0,20.0,29.76,ENE,76,1.0,-999.0,16,-99.99,,,-99.99,,2013-06-14 23:52:00,
2013-06-14 18:01:00,67.0,21.0,29.76,South,180,1.0,-999.0,17,-99.99,,,-99.99,,2013-06-15 00:01:00,
2013-06-14 18:11:00,66.0,20.0,29.76,ENE,66,1.0,-999.0,17,-99.99,,,-99.99,,2013-06-15 00:11:00,
2013-06-14 18:22:00,66.0,20.0,29.76,ENE,66,1.0,-999.0,17,-99.99,,,-99.99,,2013-06-15 00:22:00,
2013-06-14 18:34:00,66.0,20.0,29.75,NNE,16,1.0,-999.0,17,-99.99,,,-99.99,,2013-06-15 00:34:00,
2013-06-14 18:43:00,66.0,21.0,29.75,ENE,77,1.0,-999.0,18,-99.99,,,-99.99,,2013-06-15 00:43:00,
2013-06-14 18:52:00,66.0,21.0,29.75,ENE,77,1.0,-999.0,18,-99.99,,,-99.99,,2013-06-15 00:52:00,
2013-06-14 19:01:00,66.0,21.0,29.75,ENE,77,1.0,-999.0,18,-99.99,,,-99.99,,2013-06-15 01:01:00,
2013-06-14 19:11:00,66.0,21.0,29.75,ENE,77,1.0,-999.0,18,-99.99,,,-99.99,,2013-06-15 01:11:00,
2013-06-14 19:22:00,64.0,20.0,29.77,East,94,0.0,-999.0,18,-99.99,,,-99.99,,2013-06-15 01:22:00,
2013-06-14 19:33:00,64.0,20.0,29.77,East,94,0.0,-999.0,18,-99.99,,,-99.99,,2013-06-15 01:33:00,
2013-06-14 19:43:00,63.0,20.0,29.77,West,273,0.0,-999.0,19,-99.99,,,-99.99,,2013-06-15 01:43:00,
2013-06-14 19:54:00,62.0,20.0,29.78,West,272,0.0,-999.0,20,-99.99,,,-99.99,,2013-06-15 01:54:00,
2013-06-14 20:02:00,61.0,20.0,29.79,WNW,288,0.0,-999.0,20,-99.99,,,-99.99,,2013-06-15 02:02:00,
2013-06-14 20:11:00,61.0,20.0,29.79,WNW,288,0.0,-999.0,20,-99.99,,,-99.99,,2013-06-15 02:11:00,
2013-06-14 20:22:00,60.0,20.0,29.79,WNW,288,0.0,-999.0,21,-99.99,,,-99.99,,2013-06-15 02:22:00,
2013-06-14 20:33:00,60.0,20.0,29.79,WNW,288,0.0,-999.0,21,-99.99,,,-99.99,,2013-06-15 02:33:00,
2013-06-14 20:43:00,59.0,21.0,29.79,West,264,0.0,-999.0,23,-99.99,,,-99.99,,2013-06-15 02:43:00,
2013-06-14 20:53:00,56.0,20.0,29.79,West,264,0.0,-999.0,24,-99.99,,,-99.99,,2013-06-15 02:53:00,
2013-06-14 21:01:00,55.0,19.0,29.80,West,262,0.0,-999.0,24,-99.99,,,-99.99,,2013-06-15 03:01:00,
2013-06-14 21:11:00,54.0,17.0,29.79,SE,144,0.0,-999.0,23,-99.99,,,-99.99,,2013-06-15 03:11:00,
2013-06-14 21:23:00,54.0,17.0,29.79,SE,144,0.0,-999.0,23,-99.99,,,-99.99,,2013-06-15 03:23:00,
2013-06-14 21:32:00,54.0,17.0,29.82,SE,144,0.0,-999.0,23,-99.99,,,-99.99,,2013-06-15 03:32:00,
2013-06-14 21:43:00,52.0,19.0,29.83,SE,144,0.0,-999.0,27,-99.99,,,-99.99,,2013-06-15 03:43:00,
2013-06-14 21:52:00,52.0,19.0,29.83,SE,144,0.0,-999.0,27,-99.99,,,-99.99,,2013-06-15 03:52:00,
2013-06-14 22:01:00,50.0,21.0,29.85,SE,144,0.0,-999.0,32,-99.99,,,-99.99,,2013-06-15 04:01:00,
2013-06-14 22:11:00,49.0,25.0,29.85,SE,144,0.0,-999.0,39,-99.99,,,-99.99,,2013-06-15 04:11:00,
2013-06-14 22:22:00,49.0,25.0,29.85,SE,144,0.0,-999.0,39,-99.99,,,-99.99,,2013-06-15 04:22:00,
2013-06-14 22:34:00,48.0,27.0,29.86,SE,144,0.0,-999.0,43,-99.99,,,-99.99,,2013-06-15 04:34:00,
2013-06-14 22:43:00,47.0,27.0,29.85,SE,144,0.0,-999.0,46,-99.99,,,-99.99,,2013-06-15 04:43:00,
2013-06-14 22:53:00,47.0,27.0,29.85,SE,144,0.0,-999.0,46,-99.99,,,-99.99,,2013-06-15 04:53:00,
2013-06-14 23:02:00,45.0,27.0,29.87,SE,144,0.0,-999.0,48,-99.99,,,-99.99,,2013-06-15 05:02:00,
2013-06-14 23:12:00,45.0,27.0,29.86,SE,144,0.0,-999.0,50,-99.99,,,-99.99,,2013-06-15 05:12:00,
2013-06-14 23:22:00,45.0,27.0,29.86,SE,144,0.0,-999.0,50,-99.99,,,-99.99,,2013-06-15 05:22:00,
2013-06-14 23:34:00,44.0,27.0,29.86,SE,144,0.0,-999.0,51,-99.99,,,-99.99,,2013-06-15 05:34:00,
2013-06-14 23:42:00,43.0,28.0,29.85,SE,144,0.0,-999.0,55,-99.99,,,-99.99,,2013-06-15 05:42:00,
2013-06-14 23:52:00,43.0,28.0,29.85,SE,144,0.0,-999.0,55,-99.99,,,-99.99,,2013-06-15 05:52:00,